Wetterdaten: Sonntag, 28.07.2013
Datum Zeit Temperatur Luftfeuchte Luftdruck Regen Wind Richtung Richtung Taupunkt Windchill Windben
28.07.2013 00:00 20,2 C 58 % 1015,9 hPa 0,0 l/m 1,0 km/h (0 Bft) O-NO 67 11,7 C 20,8 C 2,3 km/h (1 Bft)
28.07.2013 00:05 20,5 C 57 % 1015,9 hPa 0,0 l/m 1,1 km/h (1 Bft) O-NO 67 11,7 C 21,0 C 2,1 km/h (1 Bft)
28.07.2013 00:10 20,6 C 58 % 1015,9 hPa 0,0 l/m 1,3 km/h (1 Bft) O 90 12,0 C 21,0 C 3,7 km/h (1 Bft)
28.07.2013 00:15 20,3 C 57 % 1015,9 hPa 0,0 l/m 1,1 km/h (1 Bft) W-SW 247 11,5 C 21,2 C 5,0 km/h (1 Bft)
28.07.2013 00:20 20,5 C 58 % 1015,8 hPa 0,0 l/m 1,3 km/h (1 Bft) SW 225 11,9 C 21,2 C 1,9 km/h (1 Bft)
28.07.2013 00:25 20,4 C 57 % 1015,8 hPa 0,0 l/m 1,0 km/h (0 Bft) S-SW 202 11,6 C 21,2 C 0,0 km/h (0 Bft)
28.07.2013 00:30 20,4 C 57 % 1015,8 hPa 0,0 l/m 0,6 km/h (0 Bft) W-SW 247 11,6 C 21,1 C 1,6 km/h (1 Bft)
28.07.2013 00:35 20,3 C 56 % 1015,8 hPa 0,0 l/m 0,5 km/h (0 Bft) S-SW 202 11,2 C 21,1 C 0,0 km/h (0 Bft)
28.07.2013 00:40 20,5 C 57 % 1015,9 hPa 0,0 l/m 1,3 km/h (1 Bft) W-NW 292 11,7 C 21,1 C 2,9 km/h (1 Bft)
28.07.2013 00:45 20,9 C 56 % 1015,9 hPa 0,0 l/m 1,6 km/h (1 Bft) W 270 11,8 C 21,6 C 6,3 km/h (2 Bft)
28.07.2013 00:50 20,9 C 56 % 1015,9 hPa 0,0 l/m 1,9 km/h (1 Bft) W-SW 247 11,8 C 21,8 C 2,1 km/h (1 Bft)
28.07.2013 00:55 21,0 C 55 % 1015,9 hPa 0,0 l/m 2,1 km/h (1 Bft) W-SW 247 11,6 C 22,2 C 4,2 km/h (1 Bft)
28.07.2013 01:00 21,1 C 54 % 1015,7 hPa 0,0 l/m 2,1 km/h (1 Bft) W-NW 292 11,4 C 22,4 C 1,8 km/h (1 Bft)
28.07.2013 01:05 21,2 C 54 % 1015,7 hPa 0,0 l/m 1,4 km/h (1 Bft) O-SO 112 11,5 C 22,4 C 2,3 km/h (1 Bft)
28.07.2013 01:10 20,9 C 55 % 1015,7 hPa 0,0 l/m 1,0 km/h (0 Bft) NW 315 11,5 C 22,3 C 0,0 km/h (0 Bft)
28.07.2013 01:15 20,9 C 55 % 1015,7 hPa 0,0 l/m 1,3 km/h (1 Bft) S 180 11,5 C 22,3 C 1,9 km/h (1 Bft)
28.07.2013 01:20 21,1 C 54 % 1015,7 hPa 0,0 l/m 1,3 km/h (1 Bft) W 270 11,4 C 22,5 C 0,0 km/h (0 Bft)
28.07.2013 01:25 21,2 C 54 % 1015,7 hPa 0,0 l/m 1,6 km/h (1 Bft) W 270 11,5 C 22,6 C 2,4 km/h (1 Bft)
28.07.2013 01:30 21,3 C 54 % 1015,7 hPa 0,0 l/m 1,3 km/h (1 Bft) O-NO 67 11,6 C 22,7 C 3,1 km/h (1 Bft)
28.07.2013 01:35 21,3 C 54 % 1015,7 hPa 0,0 l/m 1,6 km/h (1 Bft) S 180 11,6 C 22,7 C 3,5 km/h (1 Bft)
28.07.2013 01:40 21,5 C 53 % 1015,6 hPa 0,0 l/m 2,3 km/h (1 Bft) S 180 11,5 C 22,9 C 4,0 km/h (1 Bft)
28.07.2013 01:45 21,8 C 52 % 1015,6 hPa 0,0 l/m 1,8 km/h (1 Bft) O 90 11,5 C 22,8 C 3,4 km/h (1 Bft)
28.07.2013 01:50 21,7 C 52 % 1015,6 hPa 0,0 l/m 1,4 km/h (1 Bft) W-SW 247 11,4 C 22,7 C 0,0 km/h (0 Bft)
28.07.2013 01:55 21,7 C 52 % 1015,6 hPa 0,0 l/m 1,8 km/h (1 Bft) S-SO 157 11,4 C 22,6 C 4,2 km/h (1 Bft)
28.07.2013 02:00 22,0 C 49 % 1015,5 hPa 0,0 l/m 2,1 km/h (1 Bft) NO 45 10,8 C 22,5 C 4,7 km/h (1 Bft)
28.07.2013 02:05 22,5 C 49 % 1015,5 hPa 0,0 l/m 3,4 km/h (1 Bft) NO 45 11,2 C 22,7 C 6,9 km/h (2 Bft)
28.07.2013 02:10 22,6 C 48 % 1015,5 hPa 0,0 l/m 3,7 km/h (1 Bft) NO 45 11,0 C 22,8 C 5,8 km/h (2 Bft)
28.07.2013 02:15 22,8 C 48 % 1015,5 hPa 0,0 l/m 4,0 km/h (1 Bft) N 360 11,2 C 22,9 C 7,7 km/h (2 Bft)
28.07.2013 02:20 22,5 C 49 % 1015,4 hPa 0,0 l/m 3,7 km/h (1 Bft) S 180 11,2 C 22,9 C 4,5 km/h (1 Bft)
28.07.2013 02:25 21,8 C 51 % 1015,4 hPa 0,0 l/m 2,3 km/h (1 Bft) N-NW 337 11,2 C 22,7 C 2,4 km/h (1 Bft)
28.07.2013 02:30 21,9 C 51 % 1015,4 hPa 0,0 l/m 1,8 km/h (1 Bft) NO 45 11,3 C 22,5 C 2,4 km/h (1 Bft)
28.07.2013 02:35 21,7 C 51 % 1015,4 hPa 0,0 l/m 1,8 km/h (1 Bft) NO 45 11,1 C 22,3 C 3,4 km/h (1 Bft)
28.07.2013 02:40 21,5 C 52 % 1015,4 hPa 0,0 l/m 1,6 km/h (1 Bft) NO 45 11,2 C 22,2 C 2,9 km/h (1 Bft)
28.07.2013 02:45 21,4 C 52 % 1015,4 hPa 0,0 l/m 1,4 km/h (1 Bft) O 90 11,1 C 22,0 C 2,9 km/h (1 Bft)
28.07.2013 02:50 21,5 C 52 % 1015,4 hPa 0,0 l/m 1,3 km/h (1 Bft) N 360 11,2 C 22,0 C 3,7 km/h (1 Bft)
28.07.2013 02:55 21,8 C 52 % 1015,4 hPa 0,0 l/m 1,3 km/h (1 Bft) NO 45 11,5 C 22,2 C 3,7 km/h (1 Bft)
28.07.2013 03:00 22,1 C 51 % 1015,4 hPa 0,0 l/m 1,4 km/h (1 Bft) O-SO 112 11,5 C 22,3 C 2,1 km/h (1 Bft)
28.07.2013 03:05 22,1 C 51 % 1015,4 hPa 0,0 l/m 1,8 km/h (1 Bft) O 90 11,5 C 22,4 C 1,9 km/h (1 Bft)
28.07.2013 03:10 22,0 C 51 % 1015,4 hPa 0,0 l/m 1,6 km/h (1 Bft) SO 135 11,4 C 22,3 C 0,0 km/h (0 Bft)
28.07.2013 03:15 22,0 C 49 % 1015,4 hPa 0,0 l/m 1,4 km/h (1 Bft) O 90 10,8 C 22,3 C 2,3 km/h (1 Bft)
28.07.2013 03:20 22,1 C 49 % 1015,6 hPa 0,0 l/m 1,6 km/h (1 Bft) NO 45 10,9 C 22,2 C 3,4 km/h (1 Bft)
28.07.2013 03:25 22,3 C 49 % 1015,6 hPa 0,0 l/m 1,9 km/h (1 Bft) O-SO 112 11,1 C 22,2 C 2,9 km/h (1 Bft)
28.07.2013 03:30 21,8 C 51 % 1015,6 hPa 0,0 l/m 1,6 km/h (1 Bft) O 90 11,2 C 22,2 C 2,3 km/h (1 Bft)
28.07.2013 03:35 21,5 C 51 % 1015,6 hPa 0,0 l/m 0,6 km/h (0 Bft) O-SO 112 10,9 C 21,9 C 0,0 km/h (0 Bft)
28.07.2013 03:40 22,1 C 49 % 1016,0 hPa 0,0 l/m 1,0 km/h (0 Bft) NO 45 10,9 C 21,8 C 5,0 km/h (1 Bft)
28.07.2013 03:45 22,1 C 49 % 1016,0 hPa 0,0 l/m 2,1 km/h (1 Bft) W-NW 292 10,9 C 22,3 C 0,0 km/h (0 Bft)
28.07.2013 03:50 21,2 C 52 % 1016,0 hPa 0,0 l/m 2,1 km/h (1 Bft) S 180 10,9 C 22,1 C 4,2 km/h (1 Bft)
28.07.2013 03:55 21,0 C 54 % 1016,0 hPa 0,0 l/m 2,6 km/h (1 Bft) O-NO 67 11,3 C 21,3 C 4,8 km/h (1 Bft)
28.07.2013 04:00 21,4 C 53 % 1016,6 hPa 0,0 l/m 2,9 km/h (1 Bft) W-SW 247 11,4 C 21,2 C 3,1 km/h (1 Bft)
28.07.2013 04:05 20,0 C 55 % 1016,6 hPa 0,0 l/m 1,3 km/h (1 Bft) S 180 10,7 C 20,8 C 2,6 km/h (1 Bft)
28.07.2013 04:10 20,1 C 56 % 1016,6 hPa 0,0 l/m 0,8 km/h (0 Bft) N-NO 22 11,0 C 20,4 C 0,0 km/h (0 Bft)
28.07.2013 04:15 20,3 C 56 % 1016,6 hPa 0,0 l/m 1,6 km/h (1 Bft) O-SO 112 11,2 C 20,4 C 2,6 km/h (1 Bft)
28.07.2013 04:20 20,5 C 56 % 1017,4 hPa 0,0 l/m 1,9 km/h (1 Bft) N-NO 22 11,4 C 20,7 C 0,0 km/h (0 Bft)
28.07.2013 04:25 21,3 C 55 % 1017,4 hPa 0,0 l/m 3,1 km/h (1 Bft) O 90 11,9 C 21,3 C 9,0 km/h (2 Bft)
28.07.2013 04:30 21,3 C 55 % 1017,4 hPa 0,0 l/m 4,0 km/h (1 Bft) S 180 11,9 C 21,8 C 4,3 km/h (1 Bft)
28.07.2013 04:35 21,7 C 54 % 1017,4 hPa 0,0 l/m 6,1 km/h (2 Bft) S-SW 202 12,0 C 22,3 C 16,9 km/h (3 Bft)
28.07.2013 04:40 21,7 C 54 % 1017,9 hPa 0,0 l/m 6,6 km/h (2 Bft) S-SW 202 12,0 C 22,5 C 4,7 km/h (1 Bft)
28.07.2013 04:45 21,6 C 54 % 1017,9 hPa 0,0 l/m 6,6 km/h (2 Bft) S 180 11,9 C 22,6 C 8,7 km/h (2 Bft)
28.07.2013 04:50 21,7 C 53 % 1017,9 hPa 0,0 l/m 6,9 km/h (2 Bft) S 180 11,7 C 22,5 C 11,6 km/h (2 Bft)
28.07.2013 04:55 21,9 C 53 % 1017,9 hPa 0,0 l/m 8,0 km/h (2 Bft) S 180 11,9 C 22,4 C 20,0 km/h (4 Bft)
28.07.2013 05:00 21,9 C 54 % 1018,0 hPa 0,0 l/m 8,4 km/h (2 Bft) S 180 12,2 C 22,3 C 9,5 km/h (2 Bft)
28.07.2013 05:05 21,9 C 55 % 1018,0 hPa 0,0 l/m 8,2 km/h (2 Bft) S 180 12,4 C 22,2 C 9,3 km/h (2 Bft)
28.07.2013 05:10 22,1 C 54 % 1018,0 hPa 0,0 l/m 8,0 km/h (2 Bft) S-SO 157 12,3 C 22,3 C 12,7 km/h (3 Bft)
28.07.2013 05:15 21,5 C 56 % 1018,0 hPa 0,0 l/m 7,1 km/h (2 Bft) S 180 12,3 C 22,5 C 6,1 km/h (2 Bft)
28.07.2013 05:20 21,3 C 56 % 1018,1 hPa 0,0 l/m 5,8 km/h (2 Bft) SO 135 12,2 C 22,5 C 5,5 km/h (1 Bft)
28.07.2013 05:25 20,8 C 58 % 1018,1 hPa 0,0 l/m 4,7 km/h (1 Bft) SO 135 12,2 C 22,2 C 3,5 km/h (1 Bft)
28.07.2013 05:30 20,4 C 58 % 1018,1 hPa 0,0 l/m 3,5 km/h (1 Bft) S-SO 157 11,9 C 21,8 C 4,8 km/h (1 Bft)
28.07.2013 05:35 20,0 C 59 % 1018,1 hPa 0,0 l/m 1,9 km/h (1 Bft) W 270 11,7 C 21,5 C 0,0 km/h (0 Bft)
28.07.2013 05:40 19,7 C 60 % 1018,3 hPa 0,0 l/m 1,1 km/h (1 Bft) NO 45 11,7 C 21,1 C 2,3 km/h (1 Bft)
28.07.2013 05:45 20,3 C 60 % 1018,3 hPa 0,0 l/m 0,8 km/h (0 Bft) S 180 12,3 C 20,7 C 2,3 km/h (1 Bft)
28.07.2013 05:50 19,9 C 61 % 1018,3 hPa 0,0 l/m 1,6 km/h (1 Bft) NO 45 12,2 C 20,6 C 2,9 km/h (1 Bft)
28.07.2013 05:55 19,7 C 60 % 1018,3 hPa 0,0 l/m 1,0 km/h (0 Bft) NO 45 11,7 C 20,2 C 1,8 km/h (1 Bft)
28.07.2013 06:00 19,5 C 62 % 1018,6 hPa 0,0 l/m 0,6 km/h (0 Bft) NO 45 12,0 C 20,0 C 2,1 km/h (1 Bft)
28.07.2013 06:05 19,9 C 62 % 1018,6 hPa 0,0 l/m 1,0 km/h (0 Bft) NO 45 12,4 C 19,9 C 3,5 km/h (1 Bft)
28.07.2013 06:10 20,2 C 61 % 1018,6 hPa 0,0 l/m 1,8 km/h (1 Bft) S 180 12,4 C 20,2 C 4,2 km/h (1 Bft)
28.07.2013 06:15 20,5 C 62 % 1018,6 hPa 0,0 l/m 3,1 km/h (1 Bft) O-SO 112 13,0 C 20,8 C 2,9 km/h (1 Bft)
28.07.2013 06:20 20,5 C 63 % 1018,8 hPa 0,0 l/m 2,6 km/h (1 Bft) O-SO 112 13,2 C 21,2 C 2,9 km/h (1 Bft)
28.07.2013 06:25 20,9 C 62 % 1018,8 hPa 0,0 l/m 1,0 km/h (0 Bft) S 180 13,3 C 21,4 C 0,0 km/h (0 Bft)
28.07.2013 06:30 20,6 C 62 % 1018,8 hPa 0,0 l/m 0,3 km/h (0 Bft) N-NO 22 13,1 C 21,5 C 0,0 km/h (0 Bft)
28.07.2013 06:35 20,6 C 62 % 1018,8 hPa 0,0 l/m 0,2 km/h (0 Bft) O-NO 67 13,1 C 21,5 C 2,1 km/h (1 Bft)
28.07.2013 06:40 21,2 C 62 % 1018,9 hPa 0,0 l/m 0,5 km/h (0 Bft) O-NO 67 13,6 C 22,0 C 2,6 km/h (1 Bft)
28.07.2013 06:45 22,8 C 59 % 1018,9 hPa 0,0 l/m 1,0 km/h (0 Bft) N-NW 337 14,4 C 23,1 C 0,0 km/h (0 Bft)
28.07.2013 06:50 23,1 C 58 % 1018,9 hPa 0,0 l/m 0,8 km/h (0 Bft) N-NW 337 14,4 C 23,7 C 0,0 km/h (0 Bft)
28.07.2013 06:55 23,7 C 57 % 1018,9 hPa 0,0 l/m 0,6 km/h (0 Bft) N 360 14,7 C 24,2 C 0,0 km/h (0 Bft)
28.07.2013 07:00 23,9 C 58 % 1019,2 hPa 0,0 l/m 0,5 km/h (0 Bft) N-NO 22 15,1 C 24,6 C 1,6 km/h (1 Bft)
28.07.2013 07:05 24,3 C 57 % 1019,2 hPa 0,0 l/m 0,2 km/h (0 Bft) N 360 15,2 C 25,0 C 0,0 km/h (0 Bft)
28.07.2013 07:10 24,5 C 57 % 1019,2 hPa 0,0 l/m 0,5 km/h (0 Bft) N 360 15,4 C 25,4 C 1,9 km/h (1 Bft)
28.07.2013 07:15 25,2 C 55 % 1019,2 hPa 0,0 l/m 0,8 km/h (0 Bft) NW 315 15,5 C 25,7 C 2,3 km/h (1 Bft)
28.07.2013 07:20 25,3 C 54 % 1019,1 hPa 0,0 l/m 1,4 km/h (1 Bft) O 90 15,3 C 25,9 C 0,0 km/h (0 Bft)
28.07.2013 07:25 25,8 C 56 % 1019,1 hPa 0,0 l/m 0,8 km/h (0 Bft) N-NW 337 16,3 C 26,6 C 0,0 km/h (0 Bft)
28.07.2013 07:30 25,8 C 54 % 1019,1 hPa 0,0 l/m 0,3 km/h (0 Bft) N-NW 337 15,8 C 27,1 C 2,3 km/h (1 Bft)
28.07.2013 07:35 26,8 C 50 % 1019,1 hPa 0,0 l/m 1,0 km/h (0 Bft) O 90 15,5 C 27,2 C 2,6 km/h (1 Bft)
28.07.2013 07:40 26,7 C 50 % 1019,4 hPa 0,0 l/m 2,1 km/h (1 Bft) O 90 15,4 C 27,4 C 4,8 km/h (1 Bft)
28.07.2013 07:45 27,1 C 49 % 1019,4 hPa 0,0 l/m 3,4 km/h (1 Bft) N-NO 22 15,4 C 27,3 C 3,4 km/h (1 Bft)
28.07.2013 07:50 27,3 C 50 % 1019,4 hPa 0,0 l/m 3,5 km/h (1 Bft) N-NO 22 15,9 C 27,5 C 6,8 km/h (2 Bft)
28.07.2013 07:55 28,3 C 48 % 1019,4 hPa 0,0 l/m 2,9 km/h (1 Bft) NO 45 16,2 C 27,7 C 0,0 km/h (0 Bft)
28.07.2013 08:00 28,7 C 48 % 1019,6 hPa 0,0 l/m 2,1 km/h (1 Bft) NO 45 16,6 C 28,3 C 1,8 km/h (1 Bft)
28.07.2013 08:05 28,9 C 47 % 1019,6 hPa 0,0 l/m 0,6 km/h (0 Bft) O-NO 67 16,4 C 29,0 C 2,1 km/h (1 Bft)
28.07.2013 08:10 29,2 C 46 % 1019,6 hPa 0,0 l/m 1,4 km/h (1 Bft) NO 45 16,4 C 29,3 C 2,6 km/h (1 Bft)
28.07.2013 08:15 29,8 C 45 % 1019,6 hPa 0,0 l/m 1,8 km/h (1 Bft) S 180 16,6 C 29,6 C 2,6 km/h (1 Bft)
28.07.2013 08:20 30,4 C 44 % 1019,9 hPa 0,0 l/m 1,4 km/h (1 Bft) N 360 16,7 C 29,9 C 2,4 km/h (1 Bft)
28.07.2013 08:25 30,7 C 40 % 1019,9 hPa 0,0 l/m 1,0 km/h (0 Bft) N-NO 22 15,5 C 30,8 C 4,3 km/h (1 Bft)
28.07.2013 08:30 28,3 C 40 % 1019,9 hPa 0,0 l/m 1,6 km/h (1 Bft) N-NW 337 13,4 C 31,1 C 4,5 km/h (1 Bft)
28.07.2013 08:35 26,4 C 47 % 1019,9 hPa 0,0 l/m 2,6 km/h (1 Bft) N 360 14,2 C 29,1 C 4,3 km/h (1 Bft)
28.07.2013 08:40 25,4 C 49 % 1019,6 hPa 0,0 l/m 2,9 km/h (1 Bft) N 360 13,9 C 27,9 C 4,5 km/h (1 Bft)
28.07.2013 08:45 24,6 C 53 % 1019,6 hPa 0,0 l/m 2,9 km/h (1 Bft) N 360 14,4 C 26,1 C 2,9 km/h (1 Bft)
28.07.2013 08:50 26,8 C 50 % 1019,6 hPa 0,0 l/m 2,9 km/h (1 Bft) N-NW 337 15,5 C 26,3 C 4,2 km/h (1 Bft)
28.07.2013 08:55 29,6 C 45 % 1019,6 hPa 0,0 l/m 2,7 km/h (1 Bft) N-NO 22 16,4 C 27,6 C 0,0 km/h (0 Bft)
28.07.2013 09:00 29,7 C 44 % 1020,1 hPa 0,0 l/m 3,1 km/h (1 Bft) N-NW 337 16,1 C 28,6 C 5,8 km/h (2 Bft)
28.07.2013 09:05 29,7 C 40 % 1020,1 hPa 0,0 l/m 4,0 km/h (1 Bft) N 360 14,6 C 29,1 C 12,7 km/h (3 Bft)
28.07.2013 09:10 29,4 C 42 % 1020,1 hPa 0,0 l/m 4,8 km/h (1 Bft) N-NW 337 15,1 C 29,3 C 3,1 km/h (1 Bft)
28.07.2013 09:15 29,6 C 41 % 1020,1 hPa 0,0 l/m 4,7 km/h (1 Bft) N 360 14,9 C 29,8 C 6,8 km/h (2 Bft)
28.07.2013 09:20 30,0 C 40 % 1019,9 hPa 0,0 l/m 4,3 km/h (1 Bft) N-NW 337 14,9 C 30,2 C 8,9 km/h (2 Bft)
28.07.2013 09:25 30,6 C 38 % 1019,9 hPa 0,0 l/m 5,1 km/h (1 Bft) NW 315 14,6 C 30,8 C 10,8 km/h (2 Bft)
28.07.2013 09:30 27,8 C 42 % 1019,9 hPa 0,0 l/m 5,0 km/h (1 Bft) N-NW 337 13,7 C 30,5 C 10,8 km/h (2 Bft)
28.07.2013 09:35 29,1 C 42 % 1019,9 hPa 0,0 l/m 5,1 km/h (1 Bft) N-NW 337 14,9 C 29,9 C 8,7 km/h (2 Bft)
28.07.2013 09:40 27,1 C 45 % 1020,0 hPa 0,0 l/m 5,8 km/h (2 Bft) S-SW 202 14,1 C 29,3 C 9,5 km/h (2 Bft)
28.07.2013 09:45 25,9 C 47 % 1020,0 hPa 0,0 l/m 5,3 km/h (1 Bft) O 90 13,7 C 27,7 C 6,1 km/h (2 Bft)
28.07.2013 09:50 25,6 C 49 % 1020,0 hPa 0,0 l/m 4,2 km/h (1 Bft) W-NW 292 14,1 C 26,8 C 2,7 km/h (1 Bft)
28.07.2013 09:55 26,0 C 49 % 1020,0 hPa 0,0 l/m 4,5 km/h (1 Bft) N-NW 337 14,4 C 26,3 C 5,5 km/h (1 Bft)
28.07.2013 10:00 28,6 C 43 % 1019,4 hPa 0,0 l/m 4,2 km/h (1 Bft) W-NW 292 14,8 C 27,3 C 8,0 km/h (2 Bft)
28.07.2013 10:05 29,3 C 41 % 1019,4 hPa 0,0 l/m 4,2 km/h (1 Bft) N 360 14,7 C 29,2 C 4,0 km/h (1 Bft)
28.07.2013 10:10 29,6 C 40 % 1019,4 hPa 0,0 l/m 4,8 km/h (1 Bft) W-NW 292 14,5 C 29,7 C 3,5 km/h (1 Bft)
28.07.2013 10:15 29,6 C 38 % 1019,4 hPa 0,0 l/m 6,0 km/h (2 Bft) NO 45 13,8 C 30,3 C 11,1 km/h (2 Bft)
28.07.2013 10:20 29,1 C 37 % 1019,8 hPa 0,0 l/m 6,3 km/h (2 Bft) N-NW 337 12,9 C 30,4 C 10,1 km/h (2 Bft)
28.07.2013 10:25 28,7 C 39 % 1019,8 hPa 0,0 l/m 7,7 km/h (2 Bft) N-NW 337 13,4 C 29,6 C 8,2 km/h (2 Bft)
28.07.2013 10:30 27,5 C 40 % 1019,8 hPa 0,0 l/m 7,1 km/h (2 Bft) N 360 12,7 C 29,2 C 8,5 km/h (2 Bft)
28.07.2013 10:35 29,1 C 39 % 1019,8 hPa 0,0 l/m 6,8 km/h (2 Bft) NW 315 13,7 C 29,3 C 4,0 km/h (1 Bft)
28.07.2013 10:40 29,9 C 38 % 1019,4 hPa 0,0 l/m 6,8 km/h (2 Bft) W 270 14,0 C 29,9 C 8,2 km/h (2 Bft)
28.07.2013 10:45 29,9 C 38 % 1019,4 hPa 0,0 l/m 6,4 km/h (2 Bft) N-NO 22 14,0 C 30,4 C 6,6 km/h (2 Bft)
28.07.2013 10:50 30,4 C 36 % 1019,4 hPa 0,0 l/m 7,6 km/h (2 Bft) N-NW 337 13,6 C 30,8 C 15,3 km/h (3 Bft)
28.07.2013 10:55 30,0 C 36 % 1019,4 hPa 0,0 l/m 8,7 km/h (2 Bft) O-NO 67 13,3 C 30,6 C 8,9 km/h (2 Bft)
28.07.2013 11:00 30,3 C 35 % 1019,5 hPa 0,0 l/m 9,2 km/h (2 Bft) NW 315 13,1 C 30,7 C 11,1 km/h (2 Bft)
28.07.2013 11:05 30,2 C 37 % 1019,5 hPa 0,0 l/m 7,2 km/h (2 Bft) N 360 13,9 C 31,1 C 12,9 km/h (3 Bft)
28.07.2013 11:10 30,0 C 37 % 1019,5 hPa 0,0 l/m 6,0 km/h (2 Bft) N 360 13,7 C 31,2 C 3,7 km/h (1 Bft)
28.07.2013 11:15 30,6 C 37 % 1019,5 hPa 0,0 l/m 5,3 km/h (1 Bft) NO 45 14,2 C 31,1 C 8,0 km/h (2 Bft)
28.07.2013 11:20 30,3 C 37 % 1018,9 hPa 0,0 l/m 5,6 km/h (1 Bft) W-NW 292 14,0 C 31,1 C 15,0 km/h (3 Bft)
28.07.2013 11:25 30,5 C 37 % 1018,9 hPa 0,0 l/m 7,6 km/h (2 Bft) W-NW 292 14,1 C 31,1 C 14,0 km/h (3 Bft)
28.07.2013 11:30 30,0 C 37 % 1018,9 hPa 0,0 l/m 7,7 km/h (2 Bft) W-NW 292 13,7 C 31,0 C 5,1 km/h (1 Bft)
28.07.2013 11:35 30,9 C 37 % 1018,9 hPa 0,0 l/m 6,3 km/h (2 Bft) NW 315 14,5 C 31,0 C 5,1 km/h (1 Bft)
28.07.2013 11:40 30,8 C 36 % 1019,3 hPa 0,0 l/m 6,4 km/h (2 Bft) NW 315 14,0 C 31,1 C 13,4 km/h (3 Bft)
28.07.2013 11:45 30,5 C 36 % 1019,3 hPa 0,0 l/m 6,8 km/h (2 Bft) NW 315 13,7 C 30,7 C 10,6 km/h (2 Bft)
28.07.2013 11:50 30,7 C 36 % 1019,3 hPa 0,0 l/m 6,4 km/h (2 Bft) S 180 13,9 C 30,5 C 4,3 km/h (1 Bft)
28.07.2013 11:55 30,7 C 36 % 1019,3 hPa 0,0 l/m 6,3 km/h (2 Bft) W-NW 292 13,9 C 30,7 C 5,1 km/h (1 Bft)
28.07.2013 12:00 30,9 C 37 % 1019,1 hPa 0,0 l/m 6,4 km/h (2 Bft) NO 45 14,5 C 31,0 C 14,0 km/h (3 Bft)
28.07.2013 12:05 30,2 C 36 % 1019,1 hPa 0,0 l/m 6,8 km/h (2 Bft) W-NW 292 13,4 C 31,5 C 6,6 km/h (2 Bft)
28.07.2013 12:10 31,4 C 36 % 1019,1 hPa 0,0 l/m 6,8 km/h (2 Bft) N 360 14,5 C 31,5 C 7,9 km/h (2 Bft)
28.07.2013 12:15 31,6 C 35 % 1019,1 hPa 0,0 l/m 6,1 km/h (2 Bft) NW 315 14,2 C 32,3 C 7,4 km/h (2 Bft)
28.07.2013 12:20 30,2 C 36 % 1018,9 hPa 0,0 l/m 6,6 km/h (2 Bft) O-SO 112 13,4 C 31,9 C 6,4 km/h (2 Bft)
28.07.2013 12:25 31,8 C 37 % 1018,9 hPa 0,0 l/m 6,1 km/h (2 Bft) W-SW 247 15,3 C 31,9 C 8,4 km/h (2 Bft)
28.07.2013 12:30 31,4 C 34 % 1018,9 hPa 0,0 l/m 6,3 km/h (2 Bft) N-NW 337 13,6 C 32,3 C 8,0 km/h (2 Bft)
28.07.2013 12:35 31,4 C 35 % 1018,9 hPa 0,0 l/m 8,2 km/h (2 Bft) N-NW 337 14,1 C 32,0 C 17,7 km/h (3 Bft)
28.07.2013 12:40 32,0 C 35 % 1018,8 hPa 0,0 l/m 7,6 km/h (2 Bft) NO 45 14,6 C 32,3 C 12,9 km/h (3 Bft)
28.07.2013 12:45 31,3 C 35 % 1018,8 hPa 0,0 l/m 6,8 km/h (2 Bft) N-NO 22 14,0 C 32,6 C 6,6 km/h (2 Bft)
28.07.2013 12:50 31,3 C 36 % 1018,8 hPa 0,0 l/m 6,6 km/h (2 Bft) W-NW 292 14,4 C 32,5 C 3,2 km/h (1 Bft)
28.07.2013 12:55 31,7 C 35 % 1018,8 hPa 0,0 l/m 6,3 km/h (2 Bft) W-NW 292 14,3 C 32,7 C 8,9 km/h (2 Bft)
28.07.2013 13:00 31,7 C 35 % 1018,5 hPa 0,0 l/m 6,1 km/h (2 Bft) N-NW 337 14,3 C 32,9 C 7,6 km/h (2 Bft)
28.07.2013 13:05 32,3 C 35 % 1018,5 hPa 0,0 l/m 6,1 km/h (2 Bft) O-NO 67 14,9 C 33,2 C 8,9 km/h (2 Bft)
28.07.2013 13:10 31,9 C 34 % 1018,5 hPa 0,0 l/m 6,3 km/h (2 Bft) W-NW 292 14,1 C 33,2 C 7,7 km/h (2 Bft)
28.07.2013 13:15 31,3 C 35 % 1018,5 hPa 0,0 l/m 6,4 km/h (2 Bft) N-NO 22 14,0 C 33,2 C 6,4 km/h (2 Bft)
28.07.2013 13:20 31,5 C 36 % 1018,4 hPa 0,0 l/m 6,3 km/h (2 Bft) N 360 14,6 C 33,0 C 11,9 km/h (2 Bft)
28.07.2013 13:25 31,8 C 33 % 1018,4 hPa 0,0 l/m 5,5 km/h (1 Bft) W-NW 292 13,5 C 33,6 C 10,0 km/h (2 Bft)
28.07.2013 13:30 31,6 C 35 % 1018,4 hPa 0,0 l/m 5,5 km/h (1 Bft) N-NW 337 14,2 C 33,6 C 8,4 km/h (2 Bft)
28.07.2013 13:35 32,0 C 34 % 1018,4 hPa 0,0 l/m 6,3 km/h (2 Bft) W-NW 292 14,1 C 33,8 C 8,9 km/h (2 Bft)
28.07.2013 13:40 32,2 C 33 % 1018,3 hPa 0,0 l/m 6,4 km/h (2 Bft) O 90 13,9 C 33,5 C 8,2 km/h (2 Bft)
28.07.2013 13:45 32,4 C 33 % 1018,3 hPa 0,0 l/m 7,1 km/h (2 Bft) N-NW 337 14,0 C 33,4 C 11,1 km/h (2 Bft)
28.07.2013 13:50 32,3 C 35 % 1018,3 hPa 0,0 l/m 7,2 km/h (2 Bft) N 360 14,9 C 33,5 C 6,6 km/h (2 Bft)
28.07.2013 13:55 32,4 C 33 % 1018,3 hPa 0,0 l/m 7,2 km/h (2 Bft) W-NW 292 14,0 C 33,7 C 11,1 km/h (2 Bft)
28.07.2013 14:00 32,5 C 33 % 1018,1 hPa 0,0 l/m 6,6 km/h (2 Bft) N 360 14,1 C 33,7 C 8,4 km/h (2 Bft)
28.07.2013 14:05 32,4 C 33 % 1018,1 hPa 0,0 l/m 6,8 km/h (2 Bft) N-NW 337 14,0 C 33,9 C 14,2 km/h (3 Bft)
28.07.2013 14:10 32,3 C 33 % 1018,1 hPa 0,0 l/m 6,4 km/h (2 Bft) N-NW 337 13,9 C 34,1 C 5,1 km/h (1 Bft)
28.07.2013 14:15 32,8 C 33 % 1018,1 hPa 0,0 l/m 6,1 km/h (2 Bft) N-NW 337 14,4 C 34,2 C 5,1 km/h (1 Bft)
28.07.2013 14:20 32,7 C 34 % 1017,6 hPa 0,0 l/m 6,3 km/h (2 Bft) W-SW 247 14,8 C 34,3 C 5,5 km/h (1 Bft)
28.07.2013 14:25 33,0 C 33 % 1017,6 hPa 0,0 l/m 6,6 km/h (2 Bft) N 360 14,5 C 34,3 C 10,8 km/h (2 Bft)
28.07.2013 14:30 32,9 C 34 % 1017,6 hPa 0,0 l/m 6,3 km/h (2 Bft) N-NW 337 14,9 C 34,5 C 9,0 km/h (2 Bft)
28.07.2013 14:35 32,9 C 34 % 1017,6 hPa 0,0 l/m 6,8 km/h (2 Bft) N 360 14,9 C 34,6 C 10,8 km/h (2 Bft)
28.07.2013 14:40 32,9 C 33 % 1017,5 hPa 0,0 l/m 6,8 km/h (2 Bft) S-SW 202 14,5 C 34,6 C 3,1 km/h (1 Bft)
28.07.2013 14:45 32,9 C 34 % 1017,5 hPa 0,0 l/m 7,4 km/h (2 Bft) W 270 14,9 C 34,6 C 8,7 km/h (2 Bft)
28.07.2013 14:50 33,1 C 31 % 1017,5 hPa 0,0 l/m 7,7 km/h (2 Bft) W 270 13,7 C 34,6 C 10,0 km/h (2 Bft)
28.07.2013 14:55 33,3 C 32 % 1017,5 hPa 0,0 l/m 7,2 km/h (2 Bft) W 270 14,3 C 34,6 C 6,4 km/h (2 Bft)
28.07.2013 15:00 33,3 C 31 % 1017,3 hPa 0,0 l/m 7,2 km/h (2 Bft) W-NW 292 13,8 C 34,7 C 8,5 km/h (2 Bft)
28.07.2013 15:05 33,3 C 33 % 1017,3 hPa 0,0 l/m 7,7 km/h (2 Bft) N-NW 337 14,8 C 34,7 C 8,9 km/h (2 Bft)
28.07.2013 15:10 33,4 C 32 % 1017,3 hPa 0,0 l/m 7,4 km/h (2 Bft) W-SW 247 14,4 C 34,7 C 10,9 km/h (2 Bft)
28.07.2013 15:15 33,6 C 31 % 1017,3 hPa 0,0 l/m 7,2 km/h (2 Bft) N-NW 337 14,1 C 34,9 C 16,4 km/h (3 Bft)
28.07.2013 15:20 33,5 C 33 % 1017,1 hPa 0,0 l/m 7,7 km/h (2 Bft) N-NW 337 15,0 C 34,9 C 16,1 km/h (3 Bft)
28.07.2013 15:25 33,8 C 33 % 1017,1 hPa 0,0 l/m 7,7 km/h (2 Bft) N-NW 337 15,2 C 35,0 C 5,0 km/h (1 Bft)
28.07.2013 15:30 33,2 C 31 % 1017,1 hPa 0,0 l/m 7,2 km/h (2 Bft) W-NW 292 13,8 C 35,3 C 9,5 km/h (2 Bft)
28.07.2013 15:35 31,1 C 35 % 1017,1 hPa 0,0 l/m 6,0 km/h (2 Bft) NW 315 13,8 C 33,9 C 3,1 km/h (1 Bft)
28.07.2013 15:40 30,8 C 36 % 1016,6 hPa 0,0 l/m 5,1 km/h (1 Bft) N 360 14,0 C 33,1 C 2,9 km/h (1 Bft)
28.07.2013 15:45 30,6 C 38 % 1016,6 hPa 0,0 l/m 3,7 km/h (1 Bft) N-NW 337 14,6 C 32,5 C 5,5 km/h (1 Bft)
28.07.2013 15:50 30,5 C 38 % 1016,6 hPa 0,0 l/m 3,4 km/h (1 Bft) W-NW 292 14,5 C 32,3 C 0,0 km/h (0 Bft)
28.07.2013 15:55 30,0 C 39 % 1016,6 hPa 0,0 l/m 3,9 km/h (1 Bft) N 360 14,5 C 32,0 C 5,1 km/h (1 Bft)
28.07.2013 16:00 29,9 C 40 % 1016,4 hPa 0,0 l/m 3,1 km/h (1 Bft) N-NO 22 14,8 C 31,9 C 4,7 km/h (1 Bft)
28.07.2013 16:05 30,6 C 39 % 1016,4 hPa 0,0 l/m 2,9 km/h (1 Bft) N-NO 22 15,0 C 32,3 C 3,4 km/h (1 Bft)
28.07.2013 16:10 30,6 C 39 % 1016,4 hPa 0,0 l/m 3,2 km/h (1 Bft) NW 315 15,0 C 32,4 C 2,7 km/h (1 Bft)
28.07.2013 16:15 31,3 C 39 % 1016,4 hPa 0,0 l/m 2,4 km/h (1 Bft) W-SW 247 15,7 C 32,8 C 0,0 km/h (0 Bft)
28.07.2013 16:20 32,1 C 38 % 1016,7 hPa 0,0 l/m 1,0 km/h (0 Bft) S-SO 157 16,0 C 34,5 C 0,0 km/h (0 Bft)
28.07.2013 16:25 31,2 C 37 % 1016,7 hPa 0,0 l/m 1,8 km/h (1 Bft) NO 45 14,8 C 34,6 C 0,0 km/h (0 Bft)
28.07.2013 16:30 31,7 C 38 % 1016,7 hPa 0,0 l/m 2,9 km/h (1 Bft) W-NW 292 15,6 C 34,8 C 3,2 km/h (1 Bft)
28.07.2013 16:35 31,7 C 38 % 1016,7 hPa 0,0 l/m 2,9 km/h (1 Bft) N-NW 337 15,6 C 34,8 C 2,3 km/h (1 Bft)
28.07.2013 16:40 31,2 C 38 % 1016,4 hPa 0,0 l/m 3,4 km/h (1 Bft) NO 45 15,2 C 34,5 C 3,1 km/h (1 Bft)
28.07.2013 16:45 30,6 C 39 % 1016,4 hPa 0,0 l/m 3,2 km/h (1 Bft) N-NO 22 15,0 C 33,8 C 4,0 km/h (1 Bft)
28.07.2013 16:50 30,4 C 39 % 1016,4 hPa 0,0 l/m 3,1 km/h (1 Bft) N 360 14,9 C 33,1 C 3,9 km/h (1 Bft)
28.07.2013 16:55 30,1 C 40 % 1016,4 hPa 0,0 l/m 2,1 km/h (1 Bft) NO 45 15,0 C 32,5 C 2,1 km/h (1 Bft)
28.07.2013 17:00 30,5 C 41 % 1015,9 hPa 0,0 l/m 1,1 km/h (1 Bft) S-SO 157 15,7 C 32,6 C 0,0 km/h (0 Bft)
28.07.2013 17:05 31,6 C 40 % 1015,9 hPa 0,0 l/m 0,3 km/h (0 Bft) SO 135 16,3 C 35,0 C 0,0 km/h (0 Bft)
28.07.2013 17:10 31,2 C 43 % 1015,9 hPa 0,0 l/m 0,6 km/h (0 Bft) N 360 17,1 C 36,2 C 4,0 km/h (1 Bft)
28.07.2013 17:15 30,2 C 42 % 1015,9 hPa 0,0 l/m 1,6 km/h (1 Bft) W-NW 292 15,8 C 34,9 C 3,1 km/h (1 Bft)
28.07.2013 17:20 30,8 C 41 % 1016,0 hPa 0,0 l/m 3,1 km/h (1 Bft) W-SW 247 16,0 C 34,9 C 4,2 km/h (1 Bft)
28.07.2013 17:25 31,0 C 40 % 1016,0 hPa 0,0 l/m 3,9 km/h (1 Bft) N-NO 22 15,8 C 36,0 C 6,1 km/h (2 Bft)
28.07.2013 17:30 31,1 C 39 % 1016,0 hPa 0,0 l/m 4,0 km/h (1 Bft) W-SW 247 15,5 C 36,4 C 3,5 km/h (1 Bft)
28.07.2013 17:35 31,0 C 39 % 1016,0 hPa 0,0 l/m 3,9 km/h (1 Bft) N-NO 22 15,4 C 36,9 C 7,1 km/h (2 Bft)
28.07.2013 17:40 30,9 C 39 % 1016,0 hPa 0,0 l/m 3,5 km/h (1 Bft) NW 315 15,3 C 37,0 C 5,0 km/h (1 Bft)
28.07.2013 17:45 30,8 C 40 % 1016,0 hPa 0,0 l/m 3,1 km/h (1 Bft) O-SO 112 15,6 C 37,5 C 5,5 km/h (1 Bft)
28.07.2013 17:50 30,9 C 40 % 1016,0 hPa 0,0 l/m 2,6 km/h (1 Bft) W-SW 247 15,7 C 37,3 C 5,5 km/h (1 Bft)
28.07.2013 17:55 31,3 C 39 % 1016,0 hPa 0,0 l/m 2,9 km/h (1 Bft) W 270 15,7 C 37,7 C 4,3 km/h (1 Bft)
28.07.2013 18:00 31,3 C 39 % 1016,2 hPa 0,0 l/m 2,7 km/h (1 Bft) W-SW 247 15,7 C 37,8 C 0,0 km/h (0 Bft)
28.07.2013 18:05 31,2 C 41 % 1016,2 hPa 0,0 l/m 2,1 km/h (1 Bft) W 270 16,4 C 38,2 C 2,6 km/h (1 Bft)
28.07.2013 18:10 30,9 C 42 % 1016,2 hPa 0,0 l/m 2,1 km/h (1 Bft) W-SW 247 16,5 C 36,5 C 2,4 km/h (1 Bft)
28.07.2013 18:15 30,1 C 43 % 1016,2 hPa 0,0 l/m 1,3 km/h (1 Bft) SO 135 16,1 C 34,6 C 1,6 km/h (1 Bft)
28.07.2013 18:20 30,0 C 42 % 1015,6 hPa 0,0 l/m 0,6 km/h (0 Bft) O 90 15,7 C 34,0 C 0,0 km/h (0 Bft)
28.07.2013 18:25 29,2 C 45 % 1015,6 hPa 0,0 l/m 0,5 km/h (0 Bft) O 90 16,0 C 33,1 C 3,1 km/h (1 Bft)
28.07.2013 18:30 29,1 C 46 % 1015,6 hPa 0,0 l/m 1,4 km/h (1 Bft) O 90 16,3 C 32,2 C 2,9 km/h (1 Bft)
28.07.2013 18:35 29,0 C 48 % 1015,6 hPa 0,0 l/m 2,9 km/h (1 Bft) NO 45 16,9 C 31,1 C 4,5 km/h (1 Bft)
28.07.2013 18:40 28,7 C 49 % 1015,7 hPa 0,0 l/m 3,2 km/h (1 Bft) O-SO 112 16,9 C 30,6 C 3,4 km/h (1 Bft)
28.07.2013 18:45 28,4 C 50 % 1015,7 hPa 0,0 l/m 3,4 km/h (1 Bft) NO 45 17,0 C 30,0 C 3,5 km/h (1 Bft)
28.07.2013 18:50 28,3 C 50 % 1015,7 hPa 0,0 l/m 3,4 km/h (1 Bft) O 90 16,9 C 30,1 C 4,8 km/h (1 Bft)
28.07.2013 18:55 28,1 C 51 % 1015,7 hPa 0,0 l/m 3,7 km/h (1 Bft) O-NO 67 17,0 C 30,3 C 3,1 km/h (1 Bft)
28.07.2013 19:00 27,8 C 54 % 1015,8 hPa 0,0 l/m 3,1 km/h (1 Bft) S-SO 157 17,6 C 29,7 C 2,3 km/h (1 Bft)
28.07.2013 19:05 27,8 C 53 % 1015,8 hPa 0,0 l/m 1,6 km/h (1 Bft) NO 45 17,3 C 29,7 C 3,1 km/h (1 Bft)
28.07.2013 19:10 28,4 C 54 % 1015,8 hPa 0,0 l/m 1,1 km/h (1 Bft) O-SO 112 18,2 C 31,1 C 0,0 km/h (0 Bft)
28.07.2013 19:15 27,9 C 56 % 1015,8 hPa 0,0 l/m 1,4 km/h (1 Bft) NO 45 18,3 C 31,9 C 1,8 km/h (1 Bft)
28.07.2013 19:20 27,3 C 57 % 1016,1 hPa 0,0 l/m 1,4 km/h (1 Bft) O 90 18,0 C 30,6 C 3,1 km/h (1 Bft)
28.07.2013 19:25 26,5 C 56 % 1016,1 hPa 0,0 l/m 2,3 km/h (1 Bft) O 90 17,0 C 28,6 C 4,0 km/h (1 Bft)
28.07.2013 19:30 26,3 C 60 % 1016,1 hPa 0,0 l/m 3,5 km/h (1 Bft) NO 45 17,9 C 27,8 C 6,0 km/h (2 Bft)
28.07.2013 19:35 25,9 C 63 % 1016,1 hPa 0,0 l/m 4,7 km/h (1 Bft) NO 45 18,3 C 27,0 C 4,5 km/h (1 Bft)
28.07.2013 19:40 25,8 C 64 % 1016,2 hPa 0,0 l/m 4,3 km/h (1 Bft) O 90 18,5 C 26,6 C 4,8 km/h (1 Bft)
28.07.2013 19:45 25,7 C 65 % 1016,2 hPa 0,0 l/m 3,9 km/h (1 Bft) NO 45 18,6 C 26,3 C 4,2 km/h (1 Bft)
28.07.2013 19:50 25,7 C 66 % 1016,2 hPa 0,0 l/m 3,9 km/h (1 Bft) NO 45 18,9 C 26,2 C 4,7 km/h (1 Bft)
28.07.2013 19:55 25,6 C 66 % 1016,2 hPa 0,0 l/m 4,5 km/h (1 Bft) NO 45 18,8 C 26,1 C 5,5 km/h (1 Bft)
28.07.2013 20:00 24,3 C 71 % 1016,6 hPa 0,0 l/m 4,8 km/h (1 Bft) NO 45 18,7 C 26,1 C 6,3 km/h (2 Bft)
28.07.2013 20:05 23,1 C 79 % 1016,6 hPa 0,0 l/m 4,7 km/h (1 Bft) S-SO 157 19,3 C 24,3 C 3,7 km/h (1 Bft)
28.07.2013 20:10 23,2 C 70 % 1016,6 hPa 0,0 l/m 9,7 km/h (2 Bft) S-SO 157 17,4 C 23,1 C 37,3 km/h (5 Bft)
28.07.2013 20:15 20,9 C 78 % 1016,6 hPa 0,0 l/m 17,2 km/h (3 Bft) W-SW 247 16,9 C 18,4 C 16,6 km/h (3 Bft)
28.07.2013 20:20 20,2 C 81 % 1019,8 hPa 0,7 l/m 17,5 km/h (3 Bft) W-SW 247 16,8 C 16,7 C 15,0 km/h (3 Bft)
28.07.2013 20:25 19,8 C 84 % 1019,8 hPa 0,7 l/m 12,7 km/h (3 Bft) S-SW 202 17,0 C 17,0 C 20,0 km/h (4 Bft)
28.07.2013 20:30 19,6 C 83 % 1019,8 hPa 0,0 l/m 11,1 km/h (2 Bft) S-SO 157 16,6 C 17,6 C 7,9 km/h (2 Bft)
28.07.2013 20:35 19,4 C 84 % 1019,8 hPa 0,0 l/m 9,8 km/h (2 Bft) S 180 16,6 C 18,3 C 19,3 km/h (3 Bft)
28.07.2013 20:40 19,3 C 83 % 1020,6 hPa 0,0 l/m 9,8 km/h (2 Bft) S-SW 202 16,3 C 18,4 C 14,3 km/h (3 Bft)
28.07.2013 20:45 19,1 C 83 % 1020,6 hPa 0,0 l/m 11,9 km/h (2 Bft) S 180 16,1 C 17,8 C 18,0 km/h (3 Bft)
28.07.2013 20:50 19,0 C 82 % 1020,6 hPa 0,0 l/m 12,2 km/h (2 Bft) NW 315 15,9 C 17,7 C 13,5 km/h (3 Bft)
28.07.2013 20:55 18,8 C 83 % 1020,6 hPa 0,0 l/m 12,1 km/h (2 Bft) S-SW 202 15,8 C 17,8 C 9,3 km/h (2 Bft)
28.07.2013 21:00 18,7 C 82 % 1020,8 hPa 0,0 l/m 10,9 km/h (2 Bft) S 180 15,6 C 17,9 C 13,0 km/h (3 Bft)
28.07.2013 21:05 18,8 C 82 % 1020,8 hPa 0,0 l/m 10,9 km/h (2 Bft) N-NO 22 15,7 C 17,9 C 7,1 km/h (2 Bft)
28.07.2013 21:10 18,6 C 84 % 1020,8 hPa 0,0 l/m 10,5 km/h (2 Bft) S-SO 157 15,8 C 17,8 C 10,3 km/h (2 Bft)
28.07.2013 21:15 18,4 C 84 % 1020,8 hPa 0,0 l/m 7,4 km/h (2 Bft) S 180 15,6 C 18,8 C 9,0 km/h (2 Bft)
28.07.2013 21:20 18,4 C 85 % 1021,2 hPa 0,0 l/m 7,4 km/h (2 Bft) S 180 15,8 C 18,8 C 6,6 km/h (2 Bft)
28.07.2013 21:25 18,3 C 86 % 1021,2 hPa 0,0 l/m 6,9 km/h (2 Bft) S-SO 157 15,9 C 18,8 C 5,5 km/h (1 Bft)
28.07.2013 21:30 18,2 C 86 % 1021,2 hPa 0,0 l/m 6,4 km/h (2 Bft) S-SW 202 15,8 C 18,9 C 5,6 km/h (1 Bft)
28.07.2013 21:35 18,0 C 85 % 1021,2 hPa 0,0 l/m 7,1 km/h (2 Bft) S-SO 157 15,4 C 18,3 C 10,0 km/h (2 Bft)
28.07.2013 21:40 18,0 C 84 % 1021,4 hPa 0,0 l/m 8,2 km/h (2 Bft) S-SO 157 15,3 C 17,8 C 16,1 km/h (3 Bft)
28.07.2013 21:45 18,0 C 84 % 1021,4 hPa 0,0 l/m 9,2 km/h (2 Bft) S 180 15,3 C 17,3 C 7,2 km/h (2 Bft)
28.07.2013 21:50 17,9 C 83 % 1021,4 hPa 0,0 l/m 7,7 km/h (2 Bft) S 180 15,0 C 17,8 C 6,4 km/h (2 Bft)
28.07.2013 21:55 17,6 C 84 % 1021,4 hPa 0,0 l/m 4,3 km/h (1 Bft) O-SO 112 14,9 C 18,1 C 0,0 km/h (0 Bft)
28.07.2013 22:00 17,6 C 84 % 1022,1 hPa 0,0 l/m 2,4 km/h (1 Bft) O-NO 67 14,9 C 17,9 C 0,0 km/h (0 Bft)
28.07.2013 22:05 17,5 C 84 % 1022,1 hPa 0,0 l/m 1,1 km/h (1 Bft) O 90 14,8 C 17,6 C 2,1 km/h (1 Bft)
28.07.2013 22:10 17,5 C 85 % 1022,1 hPa 0,0 l/m 1,8 km/h (1 Bft) O-SO 112 14,9 C 17,4 C 5,8 km/h (2 Bft)
28.07.2013 22:15 17,5 C 84 % 1022,1 hPa 0,0 l/m 2,9 km/h (1 Bft) S-SO 157 14,8 C 17,5 C 5,3 km/h (1 Bft)
28.07.2013 22:20 17,4 C 84 % 1022,1 hPa 0,0 l/m 3,1 km/h (1 Bft) O-SO 112 14,7 C 17,5 C 1,8 km/h (1 Bft)
28.07.2013 22:25 17,4 C 83 % 1022,1 hPa 0,0 l/m 2,1 km/h (1 Bft) O-NO 67 14,5 C 17,4 C 2,1 km/h (1 Bft)
28.07.2013 22:30 17,4 C 82 % 1022,1 hPa 0,0 l/m 1,6 km/h (1 Bft) SO 135 14,3 C 17,5 C 2,9 km/h (1 Bft)
28.07.2013 22:35 17,4 C 80 % 1022,1 hPa 0,0 l/m 2,1 km/h (1 Bft) O-SO 112 13,9 C 17,4 C 1,9 km/h (1 Bft)
28.07.2013 22:40 17,6 C 78 % 1022,1 hPa 0,0 l/m 2,3 km/h (1 Bft) O-NO 67 13,7 C 17,5 C 2,1 km/h (1 Bft)
28.07.2013 22:45 17,7 C 77 % 1022,1 hPa 0,0 l/m 2,3 km/h (1 Bft) S-SW 202 13,6 C 17,6 C 3,9 km/h (1 Bft)
28.07.2013 22:50 17,7 C 77 % 1022,1 hPa 0,0 l/m 2,3 km/h (1 Bft) O-NO 67 13,6 C 17,7 C 2,3 km/h (1 Bft)
28.07.2013 22:55 17,6 C 77 % 1022,1 hPa 0,0 l/m 1,1 km/h (1 Bft) S 180 13,5 C 17,7 C 3,4 km/h (1 Bft)
28.07.2013 23:00 17,8 C 76 % 1022,1 hPa 0,0 l/m 1,0 km/h (0 Bft) O 90 13,5 C 17,7 C 3,1 km/h (1 Bft)
28.07.2013 23:05 17,8 C 75 % 1022,1 hPa 0,0 l/m 1,6 km/h (1 Bft) SO 135 13,3 C 17,9 C 0,0 km/h (0 Bft)
28.07.2013 23:10 17,8 C 75 % 1022,1 hPa 0,0 l/m 1,3 km/h (1 Bft) NO 45 13,3 C 17,9 C 0,0 km/h (0 Bft)
28.07.2013 23:15 17,8 C 75 % 1022,1 hPa 0,0 l/m 1,1 km/h (1 Bft) S 180 13,3 C 17,9 C 1,8 km/h (1 Bft)
28.07.2013 23:20 17,7 C 76 % 1021,9 hPa 0,0 l/m 1,0 km/h (0 Bft) NO 45 13,4 C 17,9 C 0,0 km/h (0 Bft)
28.07.2013 23:25 17,6 C 75 % 1021,9 hPa 0,0 l/m 1,0 km/h (0 Bft) O-NO 67 13,1 C 17,7 C 1,8 km/h (1 Bft)
28.07.2013 23:30 17,6 C 75 % 1021,9 hPa 0,0 l/m 1,4 km/h (1 Bft) O-NO 67 13,1 C 17,7 C 3,1 km/h (1 Bft)
28.07.2013 23:35 17,6 C 76 % 1021,9 hPa 0,0 l/m 1,9 km/h (1 Bft) O-NO 67 13,3 C 17,6 C 0,0 km/h (0 Bft)
28.07.2013 23:40 17,6 C 77 % 1021,5 hPa 0,0 l/m 1,6 km/h (1 Bft) O-NO 67 13,5 C 17,6 C 1,9 km/h (1 Bft)
28.07.2013 23:45 17,6 C 76 % 1021,5 hPa 0,0 l/m 1,3 km/h (1 Bft) O-NO 67 13,3 C 17,6 C 2,9 km/h (1 Bft)
28.07.2013 23:50 17,6 C 76 % 1021,5 hPa 0,0 l/m 1,6 km/h (1 Bft) NO 45 13,3 C 17,6 C 2,3 km/h (1 Bft)
28.07.2013 23:55 17,5 C 77 % 1021,5 hPa 0,0 l/m 1,4 km/h (1 Bft) O 90 13,4 C 17,5 C 0,0 km/h (0 Bft)
_ Min-Zeit 22:35 15:30 03:15 - 07:05 - - 04:05 20:20 23:55
Minimum _ 17,4 C 31 % 1015,4 hPa - 0,2 km/h (0 Bft) - - 10,7 C 16,7 C 0,0 km/h (0 Bft)
_ Max-Zeit 15:25 21:30 23:15 20:20 20:20 - - 20:05 18:05 20:10
Maximum _ 33,8 C 86 % 1022,1 hPa 0,7 l/m 17,5 km/h
W-SW (3 Bft)
- - 19,3 C 38,2 C 37,3 km/h
S-SO (5 Bft)
Durchschnitt _ 25,5 C 52 % 1018,1 hPa #1,4 l/m 4,0 km/h (1 Bft) NO - 14,1 C 26,5 C 5,4 km/h (1 Bft)